Location: Habighorst
(52.7089°N, 10.2278°E)
Time: 06:37:26
(UTC+00:00)

Cosmos 1862 Rocket - Pass Details

Date: 13 January 2026
Orbit: 596 x 627 km, 82.5° (Epoch: 18 February)

Event Time Altitude Azimuth Distance (km) Brightness Sun altitude
Exits shadow 06:20:37 - 344° (NNW) 2,919 6.6 -9.3°
Rises 06:20:41 0° 344° (NNW) 2,895 6.6 -9.3°
Reaches altitude 10° 06:23:00 10° 338° (NNW) 1,980 5.7 -9.0°
Maximum altitude 06:27:09 44° 267° (W) 851 3.9 -8.4°
Drops below altitude 10° 06:31:14 10° 195° (SSW) 1,946 6.3 -7.9°
Sets 06:33:29 0° 189° (S) 2,840 7.2 -7.6°
